[[{"header":{"parameterUnit":"m.s-1","parameterCategory":1,"la1":30.2991,"la2":30.254,"lo1":-89.0895,"lo2":-89.0444,"dy":0.0017,"dx":0.0017,"nx":28,"ny":28,"refTime":"2023-11-13T03:00:00:Z","depth":0,"parameterNumber":2,"parameterNumberName":"U-component_of_WINDS"},"data":[0,0,0,0,0,0,0,0,0,0,0,0,0,0,0,0,0,0,0,0,0,0,0,0,0,0,0,0,0,0,0,0,0,0,0,0,0,0,0,0,0,0,0,0,0,0,0,0,0,0,0,0,0,0,0,0,0,0,-6.2356,-6.2357,0,-6.2473,-6.2475,-6.2476,-6.2323,-6.2318,-6.2312,-6.2307,-6.2433,-6.2441,-6.245,0,0,0,0,0,0,0,0,0,0,0,0,0,-6.2003,-6.201,-6.2356,-6.2357,-6.2359,-6.2473,-6.2475,-6.2476,-6.2324,-6.2318,-6.2311,-6.2304,-6.243,-6.244,-6.245,0,0,0,0,0,0,0,0,0,0,0,0,0,-6.2142,-6.2013,-6.2355,-6.2296,-6.2292,-6.2473,-6.2475,-6.2477,-6.2326,-6.2317,-6.2309,-6.2301,-6.2427,-6.2439,-6.2452,-6.2698,0,0,-6.2491,-6.2497,0,0,0,0,0,0,0,0,-6.2135,-6.2156,-6.2303,-6.2301,-6.2296,-6.2375,-6.2397,-6.2551,-6.2328,-6.2313,-6.2307,-6.2297,-6.2421,-6.2434,-6.2474,-6.2704,-6.2709,-6.2492,-6.25,-6.2505,-6.2509,0,0,0,0,0,0,0,-6.2125,-6.215,-6.2402,-6.2306,-6.2302,-6.2265,-6.2276,-6.2425,-6.2413,-6.2314,-6.2303,-6.2319,-6.2417,-6.2462,-6.2476,-6.2711,-6.2492,-6.2503,-6.2511,-6.2516,-6.315,-6.3159,0,0,0,0,0,0,-6.2122,-6.2143,-6.2398,-6.2406,-6.2193,-6.2279,-6.229,-6.2358,-6.241,-6.241,-6.2326,-6.2311,-6.2444,-6.2461,-6.248,-6.2773,-6.2505,-6.2517,-6.2525,-6.3141,-6.3152,-6.3162,0,0,0,0,0,0,-6.2115,-6.2146,-6.2394,-6.2271,-6.23,-6.2293,-6.2371,-6.2365,-6.241,-6.2419,-6.2417,-6.2374,-6.2438,-6.2462,-6.2645,-6.2775,-6.2523,-6.2535,-6.313,-6.3144,-6.3157,-6.336,0,0,0,0,0,0,-6.2106,-6.2145,-6.2237,-6.2274,-6.2307,-6.2556,-6.2379,-6.2373,-6.2432,-6.2414,-6.2464,-6.2464,-6.2434,-6.2626,-6.2658,-6.2788,-6.2545,-6.3118,-6.3136,-6.3152,-6.3342,-6.3379,-6.3411,0,0,0,0,0,-6.2093,-6.229,-6.2242,-6.2274,-6.2422,-6.2564,-6.2583,-6.2542,-6.2443,-6.2536,-6.2543,-6.2462,-6.2755,-6.2646,-6.268,-6.2816,-6.311,-6.3131,-6.3151,-6.3326,-6.3372,-6.341,0,0,0,0,0,0,-6.227,-6.2294,-6.2241,-6.2456,-6.2509,-6.2538,-6.2654,-6.2591,-6.2675,-6.2655,-6.2603,-6.2615,-6.2811,-6.2831,-6.271,-6.3058,-6.2916,-6.2945,-6.3038,-6.3081,-6.3115,-6.3107,-6.2555,0,0,0,0,0,-6.2333,-6.2445,-6.246,-6.2648,-6.2677,-6.2662,-6.2722,-6.2686,-6.2739,-6.2762,-6.2781,-6.2838,-6.2942,-6.3012,-6.3109,-6.3343,-6.3353,-6.3453,-6.3488,-6.3516,-6.3542,-6.3669,-6.3715,-6.3229,-6.3229,-6.3229,0,0,-6.2467,-6.2494,-6.2567,-6.2684,-6.2721,-6.284,-6.2682,-6.2813,-6.2901,-6.2782,-6.2956,-6.2973,-6.3032,-6.3242,-6.3336,-6.3265,-6.3678,-6.3542,-6.3565,-6.3576,-6.3695,-6.3741,-6.3782,-6.3243,-6.3241,-6.3239,0,0,-6.277,-6.2801,-6.2961,-6.3001,-6.3058,-6.3046,-6.3085,-6.3124,-6.313,-6.3303,-6.3217,-6.3321,-6.3502,-6.3548,-6.3595,-6.3917,-6.3847,-6.3949,-6.4131,-6.4256,-6.4294,-6.4328,-6.4445,-6.4487,-6.3975,-6.3975,-6.3976,0,-6.2929,-6.3102,-6.3052,-6.319,-6.3245,-6.3141,-6.3304,-6.3345,-6.3432,-6.3474,-6.3392,-6.3618,-6.365,-6.3871,-6.3949,-6.399,-6.4035,-6.3945,-6.4292,-6.4326,-6.4357,-6.4468,-6.4511,-6.3987,-6.3986,-6.3985,-6.3984,0,-6.3296,-6.3418,-6.3541,-6.3626,-6.3694,-6.3844,-6.3819,-6.3894,-6.3852,-6.385,-6.4029,-6.4064,-6.4166,-6.4215,-6.4176,-6.4432,-6.4386,-6.43,-6.4157,-6.4416,-6.452,-6.4561,-6.4005,-6.4001,-6.3997,-6.3994,0,0,-6.3716,-6.377,-6.3817,-6.3855,-6.391,-6.4004,-6.415,-6.4248,-6.4315,-6.4378,-6.4501,-6.4656,-6.4577,-6.4631,-6.4596,-6.4705,-6.496,-6.4605,-6.4606,-6.4672,-6.5246,-6.5313,-6.5362,-6.4913,-6.4921,-6.4927,-6.5242,0,-6.4021,-6.4272,-6.4231,-6.4475,-6.4588,-6.449,-6.4617,-6.4666,-6.4668,-6.4765,-6.4767,-6.4879,-6.4764,-6.4796,-6.49,-6.4907,-6.5075,-6.4883,-6.5029,-6.5035,-6.502,-6.5416,-6.5487,-6.5782,-6.5282,-6.5288,-6.5293,0,-6.4411,-6.4487,-6.4743,-6.4781,-6.4826,-6.4942,-6.5029,-6.5123,-6.5176,-6.517,-6.523,-6.5175,-6.5323,-6.5176,-6.538,-6.5251,-6.5308,-6.5321,-6.5331,-6.5345,-6.5182,-6.5444,-6.5875,-6.592,-6.5356,-6.5351,-6.5347,0,-6.4695,-6.4861,-6.5035,-6.5071,-6.5119,-6.5202,-6.5227,-6.5272,-6.5334,-6.5411,-6.5452,-6.5545,-6.5598,-6.5673,-6.5646,-6.554,-6.5857,-6.5706,-6.5858,-6.5859,-6.5931,-6.5927,-6.638,-6.5964,-6.5963,-6.5962,-6.5961,0,-6.5041,-6.5202,-6.5164,-6.5272,-6.5449,-6.5401,-6.5578,-6.5591,-6.5632,-6.5742,-6.5662,-6.5768,-6.5724,-6.5827,-6.5806,-6.598,-6.6004,-6.6004,-6.5998,-6.6013,-6.6014,-6.6052,-6.6032,-6.5974,-6.5971,-6.5969,-6.5967,0,-6.539,-6.537,-6.5554,-6.5584,-6.5595,-6.5725,-6.5752,-6.5854,-6.5848,-6.5988,-6.6018,-6.6011,-6.6128,-6.6108,-6.6237,-6.6224,-6.6442,-6.6408,-6.6424,-6.6417,-6.657,-6.6557,-6.7066,-6.7131,-6.667,-6.6674,-6.6678,0,-6.5613,-6.5734,-6.5777,-6.5844,-6.5874,-6.5984,-6.6046,-6.6004,-6.6073,-6.6143,-6.6238,-6.6347,-6.6432,-6.6624,-6.6632,-6.6731,-6.6701,-6.6873,-6.6716,-6.6728,-6.6707,-6.6702,-6.6715,-6.6905,-6.691,-6.6914,-6.6918,0,-6.6014,-6.5998,-6.609,-6.6181,-6.6258,-6.6327,-6.6389,-6.6449,-6.6412,-6.6494,-6.6611,-6.6678,-6.681,-6.6921,-6.7013,-6.7039,-6.6975,-6.6967,-6.7007,-6.7026,-6.7031,-6.7033,-6.6511,-6.6956,-6.6952,-6.6949,-6.6947,-6.6946,-6.6308,-6.6412,-6.6458,-6.6565,-6.6606,-6.6666,-6.6763,-6.677,-6.6867,-6.697,-6.6938,-6.7074,-6.7125,-6.7242,-6.7279,-6.7385,-6.7322,-6.7381,-6.7396,-6.7412,-6.7431,-6.7012,-6.7402,-6.7401,-6.74,-6.7399,-6.7398,0,-6.6706,-6.6731,-6.6829,-6.6918,-6.7002,-6.693,-6.6995,-6.7071,-6.719,-6.7242,-6.7328,-6.7464,-6.7571,-6.7587,-6.7689,-6.7771,-6.7744,-6.78,-6.7795,-6.7803,-6.7481,-6.7437,-6.782,-6.782,-6.782,-6.782,-6.782,-6.782,-6.6923,-6.7096,-6.7086,-6.7278,-6.7301,-6.7432,-6.7475,-6.7531,-6.7573,-6.7728,-6.7816,-6.7824,-6.7863,-6.7967,-6.8063,-6.8065,-6.8108,-6.8176,-6.8167,-6.7867,-6.7825,-6.7785,-6.7743,-6.8185,-6.8185,-6.848,-6.8482,-6.8484]},{"header":{"parameterUnit":"m.s-1","parameterCategory":1,"la1":30.2991,"la2":30.254,"lo1":-89.0895,"lo2":-89.0444,"dy":0.0017,"dx":0.0017,"nx":28,"ny":28,"refTime":"2023-11-13T03:00:00:Z","depth":0,"parameterNumber":3,"parameterNumberName":"V-component_of_WINDS"},"data":[0,0,0,0,0,0,0,0,0,0,0,0,0,0,0,0,0,0,0,0,0,0,0,0,0,0,0,0,0,0,0,0,0,0,0,0,0,0,0,0,0,0,0,0,0,0,0,0,0,0,0,0,0,0,0,0,0,0,-2.6066,-2.6066,0,-2.6023,-2.6023,-2.6022,-2.598,-2.598,-2.5979,-2.5979,-2.5936,-2.5935,-2.5934,0,0,0,0,0,0,0,0,0,0,0,0,0,-2.6111,-2.611,-2.6066,-2.6066,-2.6065,-2.6023,-2.6023,-2.6022,-2.5981,-2.598,-2.5979,-2.5979,-2.5936,-2.5935,-2.5934,0,0,0,0,0,0,0,0,0,0,0,0,0,-2.6082,-2.611,-2.6066,-2.6039,-2.6036,-2.6024,-2.6023,-2.6022,-2.5981,-2.598,-2.5979,-2.5978,-2.5936,-2.5935,-2.5934,-2.5945,0,0,-2.5931,-2.5931,0,0,0,0,0,0,0,0,-2.6084,-2.6081,-2.6044,-2.6041,-2.6038,-2.6006,-2.6023,-2.5996,-2.5981,-2.6002,-2.5979,-2.5978,-2.596,-2.5957,-2.5951,-2.5943,-2.5941,-2.5931,-2.5931,-2.593,-2.593,0,0,0,0,0,0,0,-2.6086,-2.6082,-2.6049,-2.6043,-2.604,-2.6029,-2.6024,-2.6017,-2.5986,-2.6,-2.5997,-2.5992,-2.5958,-2.5952,-2.5949,-2.594,-2.5931,-2.593,-2.593,-2.5929,-2.5936,-2.5937,0,0,0,0,0,0,-2.6092,-2.6084,-2.6051,-2.6048,-2.6059,-2.6029,-2.6023,-2.6017,-2.5986,-2.598,-2.5993,-2.599,-2.5954,-2.5951,-2.5948,-2.5956,-2.593,-2.5929,-2.5929,-2.5936,-2.5937,-2.5937,0,0,0,0,0,0,-2.6093,-2.6089,-2.6052,-2.6065,-2.606,-2.6029,-2.6023,-2.6017,-2.601,-2.5981,-2.5975,-2.5992,-2.5953,-2.5949,-2.5945,-2.5954,-2.5929,-2.5928,-2.5935,-2.5936,-2.5937,-2.5975,0,0,0,0,0,0,-2.6095,-2.609,-2.6094,-2.6066,-2.6059,-2.6051,-2.6023,-2.6017,-2.6009,-2.6005,-2.5979,-2.5973,-2.5952,-2.5947,-2.5944,-2.5953,-2.5927,-2.5934,-2.5935,-2.5937,-2.5973,-2.5977,-2.5981,0,0,0,0,0,-2.6096,-2.6107,-2.6095,-2.6091,-2.6063,-2.6052,-2.6048,-2.6023,-2.601,-2.6013,-2.5994,-2.5974,-2.5954,-2.5947,-2.5944,-2.5952,-2.5933,-2.5935,-2.5937,-2.5971,-2.5976,-2.5981,0,0,0,0,0,0,-2.6138,-2.6103,-2.6089,-2.6091,-2.6074,-2.6045,-2.6048,-2.603,-2.6017,-2.6014,-2.5984,-2.5979,-2.5978,-2.5964,-2.5957,-2.5959,-2.5941,-2.5942,-2.5968,-2.5973,-2.5977,-2.598,-2.5926,0,0,0,0,0,-2.6148,-2.6141,-2.6111,-2.6115,-2.6108,-2.6079,-2.6073,-2.6055,-2.6038,-2.6031,-2.6011,-2.5994,-2.5984,-2.5978,-2.5967,-2.5971,-2.5963,-2.5975,-2.5979,-2.5982,-2.5983,-2.5983,-2.5987,-2.5943,-2.5943,-2.5943,0,0,-2.6167,-2.6147,-2.6145,-2.6123,-2.6108,-2.6102,-2.6074,-2.6069,-2.6063,-2.603,-2.6024,-2.6009,-2.5989,-2.5988,-2.5987,-2.5977,-2.5994,-2.5984,-2.5988,-2.5987,-2.5985,-2.5989,-2.5993,-2.5944,-2.5944,-2.5944,0,0,-2.6199,-2.6184,-2.6185,-2.617,-2.6148,-2.6129,-2.6129,-2.6102,-2.609,-2.6085,-2.6059,-2.6052,-2.6035,-2.6021,-2.6011,-2.6036,-2.6016,-2.6033,-2.6055,-2.6054,-2.6058,-2.606,-2.6068,-2.6071,-2.6034,-2.6034,-2.6034,0,-2.6226,-2.6215,-2.6188,-2.6183,-2.6174,-2.6143,-2.6143,-2.613,-2.6106,-2.61,-2.6089,-2.6066,-2.605,-2.6045,-2.605,-2.6044,-2.6043,-2.6036,-2.6059,-2.6062,-2.6064,-2.6071,-2.6074,-2.6036,-2.6036,-2.6036,-2.6036,0,-2.6248,-2.6241,-2.6245,-2.6221,-2.6212,-2.621,-2.6182,-2.6176,-2.6159,-2.6141,-2.6134,-2.6113,-2.6097,-2.6094,-2.6078,-2.6086,-2.608,-2.6065,-2.6046,-2.6071,-2.6076,-2.6079,-2.6039,-2.6039,-2.6038,-2.6038,0,0,-2.6306,-2.6266,-2.6268,-2.6256,-2.6228,-2.6222,-2.6218,-2.6201,-2.6196,-2.618,-2.6175,-2.6161,-2.6145,-2.6135,-2.6116,-2.6116,-2.6134,-2.61,-2.6099,-2.6106,-2.6141,-2.6152,-2.6155,-2.6122,-2.6122,-2.6122,-2.6142,0,-2.6332,-2.6323,-2.6298,-2.6297,-2.6289,-2.6258,-2.6254,-2.6237,-2.6219,-2.621,-2.619,-2.618,-2.6162,-2.6155,-2.6153,-2.6133,-2.6141,-2.6131,-2.6116,-2.6116,-2.6121,-2.6158,-2.6171,-2.619,-2.6144,-2.6144,-2.6145,0,-2.6362,-2.6346,-2.6344,-2.6315,-2.6311,-2.6308,-2.629,-2.6281,-2.626,-2.6247,-2.6235,-2.6213,-2.6206,-2.6189,-2.6178,-2.6172,-2.6164,-2.6153,-2.6153,-2.615,-2.6131,-2.6155,-2.6196,-2.6199,-2.6148,-2.6148,-2.6148,0,-2.6402,-2.6381,-2.6377,-2.6368,-2.6334,-2.6333,-2.6319,-2.6297,-2.6288,-2.6271,-2.6265,-2.6249,-2.6239,-2.6227,-2.6201,-2.6191,-2.6193,-2.6174,-2.6181,-2.6182,-2.6183,-2.6183,-2.6222,-2.618,-2.6179,-2.6179,-2.6179,0,-2.6433,-2.6433,-2.6394,-2.6391,-2.6389,-2.636,-2.6358,-2.6342,-2.6322,-2.6315,-2.6288,-2.6281,-2.6248,-2.6238,-2.6218,-2.6211,-2.6207,-2.6196,-2.6191,-2.6198,-2.6199,-2.6192,-2.619,-2.618,-2.618,-2.618,-2.618,0,-2.6478,-2.6452,-2.6445,-2.6414,-2.6406,-2.6405,-2.6378,-2.6374,-2.6354,-2.6345,-2.6341,-2.6311,-2.6297,-2.627,-2.6249,-2.6235,-2.6233,-2.6224,-2.624,-2.6236,-2.6245,-2.6244,-2.6279,-2.6282,-2.624,-2.624,-2.624,0,-2.65,-2.6498,-2.6466,-2.6459,-2.6446,-2.6435,-2.6426,-2.6396,-2.6387,-2.6362,-2.636,-2.6344,-2.6329,-2.6308,-2.6284,-2.6267,-2.6257,-2.627,-2.6254,-2.6261,-2.6255,-2.6255,-2.6254,-2.6274,-2.6275,-2.6275,-2.6276,0,-2.654,-2.6526,-2.6513,-2.6495,-2.6484,-2.6469,-2.6452,-2.6448,-2.6414,-2.6405,-2.639,-2.6379,-2.6357,-2.634,-2.632,-2.6305,-2.6284,-2.6281,-2.6281,-2.6289,-2.6297,-2.6291,-2.6248,-2.628,-2.628,-2.6279,-2.6279,-2.6279,-2.6572,-2.6569,-2.6545,-2.6531,-2.6515,-2.65,-2.6493,-2.6473,-2.646,-2.6439,-2.6423,-2.6409,-2.6386,-2.6356,-2.6342,-2.633,-2.632,-2.6322,-2.6322,-2.6322,-2.6324,-2.63,-2.6326,-2.6326,-2.6326,-2.6326,-2.6325,0,-2.6609,-2.6593,-2.658,-2.6557,-2.6545,-2.6527,-2.6507,-2.6498,-2.6486,-2.6467,-2.6453,-2.6435,-2.6418,-2.6392,-2.6373,-2.6369,-2.6359,-2.6365,-2.6364,-2.6361,-2.6335,-2.6336,-2.6373,-2.6373,-2.6373,-2.6373,-2.6373,-2.6373,-2.6628,-2.662,-2.6604,-2.6589,-2.6571,-2.6557,-2.6547,-2.6532,-2.6516,-2.6497,-2.6483,-2.6466,-2.6444,-2.6423,-2.6406,-2.6399,-2.6393,-2.6402,-2.6391,-2.6367,-2.6363,-2.6359,-2.6359,-2.6401,-2.6401,-2.6418,-2.6418,-2.6418]}]]